Location: Newark
(7.0858°N, 171.3717°E)
Time: 16:23:32
(UTC+00:00)

Transit 2A - Pass Details

Date: 04 December 2020
Orbit: 598 x 960 km, 66.7° (Epoch: 20 January)

Event Time Altitude Azimuth Distance (km) Brightness Sun altitude
Rises 02:20:31 0° 172° (S) 3,554 9.8 49.2°
Reaches altitude 10° 02:23:33 10° 158° (SSE) 2,647 9.1 48.7°
Maximum altitude 02:28:20 23° 108° (ESE) 1,897 8.1 47.8°
Drops below altitude 10° 02:33:10 10° 58° (ENE) 2,683 8.5 47.0°
Sets 02:36:14 0° 44° (NE) 3,614 9.1 46.4°
